HAL9001 KPDX-KLAX

Flight info

Callsign HAL9001
Flight time 2h 20m
Altitude 39000
Route HRMNS6 HYJOE JAGWA BURGL IRNMN2
Aircraft L101/H-SDFGHIRWXY/S

Departure

Time 2026-05-05 02:14
Airport Portland International Airport (KPDX)

Arrival

Time 2026-05-05 04:34
Airport Los Angeles International Airport (KLAX)
Time Latitude Longitude Altitude Speed Heading
2026-05-05 01:48 45.59195 -122.59700 24 ft 0 kts 150°
2026-05-05 01:48 45.59191 -122.59696 24 ft 0 kts 149°
2026-05-05 02:02 45.59192 -122.59697 22 ft 1 kts 149°
2026-05-05 02:02 45.59211 -122.59713 34 ft 1 kts 149°
2026-05-05 02:02 45.59229 -122.59734 23 ft 3 kts 123°
2026-05-05 02:02 45.59243 -122.59766 23 ft 3 kts 117°
2026-05-05 02:03 45.59250 -122.59801 25 ft 3 kts 78°
2026-05-05 02:03 45.59238 -122.59827 25 ft 2 kts 30°
2026-05-05 02:03 45.59218 -122.59843 27 ft 0 kts 30°
2026-05-05 02:08 45.59226 -122.59836 23 ft 4 kts 30°
2026-05-05 02:08 45.59259 -122.59809 24 ft 8 kts 30°
2026-05-05 02:08 45.59302 -122.59754 25 ft 12 kts 49°
2026-05-05 02:08 45.59352 -122.59655 26 ft 15 kts 69°
2026-05-05 02:09 45.59337 -122.59514 27 ft 17 kts 114°
2026-05-05 02:09 45.59281 -122.59366 27 ft 20 kts 119°
2026-05-05 02:09 45.59215 -122.59196 25 ft 22 kts 120°
2026-05-05 02:09 45.59139 -122.59008 26 ft 24 kts 118°
2026-05-05 02:10 45.59059 -122.58800 28 ft 26 kts 119°
2026-05-05 02:10 45.58970 -122.58575 25 ft 29 kts 120°
2026-05-05 02:10 45.58878 -122.58334 26 ft 30 kts 119°
2026-05-05 02:10 45.58786 -122.58103 27 ft 30 kts 120°
2026-05-05 02:11 45.58690 -122.57858 29 ft 31 kts 119°
2026-05-05 02:11 45.58606 -122.57643 28 ft 26 kts 118°
2026-05-05 02:11 45.58521 -122.57423 28 ft 28 kts 119°
2026-05-05 02:11 45.58428 -122.57184 24 ft 30 kts 119°
2026-05-05 02:12 45.58352 -122.56990 26 ft 22 kts 119°
2026-05-05 02:12 45.58281 -122.56781 28 ft 8 kts 89°
2026-05-05 02:12 45.58311 -122.56717 25 ft 8 kts 28°
2026-05-05 02:13 45.58362 -122.56722 28 ft 9 kts 328°
2026-05-05 02:13 45.58423 -122.56845 26 ft 32 kts 299°
2026-05-05 02:13 45.58662 -122.57466 29 ft 123 kts 302°
2026-05-05 02:13 45.59149 -122.58685 156 ft 189 kts 297°
2026-05-05 02:14 45.59809 -122.60319 786 ft 187 kts 298°
2026-05-05 02:14 45.60336 -122.61638 1396 ft 161 kts 299°
2026-05-05 02:14 45.60878 -122.62985 2475 ft 173 kts 298°
2026-05-05 02:14 45.61455 -122.64456 3655 ft 183 kts 298°
2026-05-05 02:15 45.62004 -122.65991 4832 ft 190 kts 297°
2026-05-05 02:15 45.62517 -122.67469 5892 ft 196 kts 298°
2026-05-05 02:15 45.63057 -122.69143 7030 ft 201 kts 297°
2026-05-05 02:15 45.63612 -122.70975 8242 ft 193 kts 296°
2026-05-05 02:16 45.64071 -122.72464 9107 ft 156 kts 298°
2026-05-05 02:16 45.64550 -122.73872 10008 ft 159 kts 300°
2026-05-05 02:16 45.65069 -122.75274 10877 ft 160 kts 302°
2026-05-05 02:16 45.65644 -122.76743 11507 ft 184 kts 303°
2026-05-05 02:17 45.66218 -122.78429 12059 ft 214 kts 288°
2026-05-05 02:17 45.66348 -122.80650 12968 ft 235 kts 267°
2026-05-05 02:17 45.66080 -122.83002 14058 ft 240 kts 263°
2026-05-05 02:17 45.65805 -122.85326 15016 ft 239 kts 265°
2026-05-05 02:18 45.65479 -122.87740 15785 ft 258 kts 252°
2026-05-05 02:18 45.64611 -122.89741 16314 ft 261 kts 224°
2026-05-05 02:18 45.63026 -122.91015 16936 ft 266 kts 192°
2026-05-05 02:18 45.61187 -122.91173 17602 ft 270 kts 173°
2026-05-05 02:19 45.59300 -122.90737 18285 ft 276 kts 166°
2026-05-05 02:19 45.57412 -122.90138 18902 ft 278 kts 165°
2026-05-05 02:19 45.55604 -122.89365 19834 ft 266 kts 153°
2026-05-05 02:19 45.53979 -122.88157 20800 ft 263 kts 144°
2026-05-05 02:20 45.52387 -122.86827 21780 ft 267 kts 147°
2026-05-05 02:20 45.50712 -122.85619 22723 ft 273 kts 150°
2026-05-05 02:20 45.49014 -122.84476 23544 ft 264 kts 149°
2026-05-05 02:20 45.47380 -122.83304 23973 ft 268 kts 146°
2026-05-05 02:21 45.45686 -122.81947 24309 ft 289 kts 144°
2026-05-05 02:21 45.43940 -122.80465 24816 ft 296 kts 143°
2026-05-05 02:21 45.42176 -122.78954 25641 ft 293 kts 143°
2026-05-05 02:21 45.40449 -122.77478 26704 ft 287 kts 142°
2026-05-05 02:22 45.38747 -122.76025 27727 ft 283 kts 142°
2026-05-05 02:22 45.37058 -122.74581 28605 ft 284 kts 142°
2026-05-05 02:22 45.35359 -122.73120 29394 ft 287 kts 141°
2026-05-05 02:22 45.33645 -122.71636 30137 ft 291 kts 141°
2026-05-05 02:23 45.31910 -122.70124 30790 ft 294 kts 140°
2026-05-05 02:23 45.30155 -122.68583 31363 ft 301 kts 140°
2026-05-05 02:23 45.28331 -122.66955 31716 ft 320 kts 139°
2026-05-05 02:23 45.26409 -122.65202 31845 ft 334 kts 139°
2026-05-05 02:24 45.24443 -122.63391 31978 ft 339 kts 139°
2026-05-05 02:24 45.22465 -122.61558 32101 ft 341 kts 139°
2026-05-05 02:24 45.20599 -122.59821 32231 ft 342 kts 139°
2026-05-05 02:24 45.18607 -122.57960 32377 ft 343 kts 138°
2026-05-05 02:25 45.16617 -122.56094 32496 ft 343 kts 138°
2026-05-05 02:25 45.14625 -122.54218 32644 ft 344 kts 138°
2026-05-05 02:25 45.12633 -122.52337 32764 ft 344 kts 138°
2026-05-05 02:25 45.10572 -122.50575 32910 ft 350 kts 147°
2026-05-05 02:26 45.08334 -122.49168 33047 ft 353 kts 149°
2026-05-05 02:26 45.06066 -122.47777 33183 ft 358 kts 147°
2026-05-05 02:26 45.03819 -122.46188 33325 ft 364 kts 143°
2026-05-05 02:26 45.01608 -122.44423 33375 ft 377 kts 142°
2026-05-05 02:27 44.99300 -122.42481 33441 ft 394 kts 141°
2026-05-05 02:27 44.96870 -122.40492 33474 ft 415 kts 147°
2026-05-05 02:27 44.94146 -122.38839 33510 ft 438 kts 154°
2026-05-05 02:27 44.91189 -122.37450 33585 ft 456 kts 156°
2026-05-05 02:28 44.88136 -122.36040 33622 ft 470 kts 155°
2026-05-05 02:28 44.84998 -122.34519 33663 ft 483 kts 155°
2026-05-05 02:28 44.81795 -122.32949 33820 ft 492 kts 155°
2026-05-05 02:28 44.78520 -122.31378 33947 ft 502 kts 156°
2026-05-05 02:29 44.75176 -122.29808 34094 ft 510 kts 156°
2026-05-05 02:29 44.71791 -122.28235 34373 ft 515 kts 156°
2026-05-05 02:29 44.68332 -122.26631 34811 ft 516 kts 156°
2026-05-05 02:29 44.64975 -122.25076 35336 ft 514 kts 156°
2026-05-05 02:30 44.61596 -122.23517 35981 ft 510 kts 156°
2026-05-05 02:30 44.58241 -122.21967 36722 ft 504 kts 155°
2026-05-05 02:30 44.54925 -122.20433 37503 ft 499 kts 155°
2026-05-05 02:30 44.51643 -122.18917 38213 ft 496 kts 155°
2026-05-05 02:31 44.48367 -122.17403 38688 ft 498 kts 155°
2026-05-05 02:31 44.45059 -122.15869 38866 ft 503 kts 155°
2026-05-05 02:31 44.41714 -122.14320 38974 ft 511 kts 156°
2026-05-05 02:32 44.34998 -122.11248 39005 ft 498 kts 156°
2026-05-05 02:32 44.28361 -122.08212 39039 ft 503 kts 155°
2026-05-05 02:33 44.21708 -122.05164 39050 ft 504 kts 155°
2026-05-05 02:33 44.15046 -122.02128 39031 ft 504 kts 156°
2026-05-05 02:34 44.08384 -121.99098 39029 ft 503 kts 156°
2026-05-05 02:34 44.01775 -121.96101 39023 ft 502 kts 155°
2026-05-05 02:35 43.95141 -121.93093 39037 ft 501 kts 155°
2026-05-05 02:35 43.88512 -121.90106 39032 ft 502 kts 157°
2026-05-05 02:36 43.81609 -121.88175 39002 ft 510 kts 166°
2026-05-05 02:36 43.74602 -121.86694 39002 ft 509 kts 165°
2026-05-05 02:37 43.67609 -121.85095 38996 ft 509 kts 165°
2026-05-05 02:37 43.60618 -121.83598 38968 ft 509 kts 165°
2026-05-05 02:38 43.53612 -121.82123 38969 ft 508 kts 165°
2026-05-05 02:38 43.46631 -121.80648 38953 ft 507 kts 165°
2026-05-05 02:39 43.39649 -121.79184 38922 ft 508 kts 165°
2026-05-05 02:39 43.32672 -121.77727 38887 ft 506 kts 165°
2026-05-05 02:40 43.25702 -121.76274 38871 ft 506 kts 165°
2026-05-05 02:40 43.18755 -121.74830 38849 ft 505 kts 165°
2026-05-05 02:41 43.11810 -121.73390 38860 ft 504 kts 165°
2026-05-05 02:41 43.04880 -121.71954 38842 ft 503 kts 165°
2026-05-05 02:42 42.97957 -121.70523 38836 ft 503 kts 165°
2026-05-05 02:42 42.91048 -121.69101 38836 ft 501 kts 164°
2026-05-05 02:43 42.84149 -121.67684 38829 ft 501 kts 164°
2026-05-05 02:43 42.77311 -121.66282 38841 ft 500 kts 164°
2026-05-05 02:44 42.70392 -121.64869 38828 ft 498 kts 164°
2026-05-05 02:44 42.63604 -121.63482 38821 ft 497 kts 164°
2026-05-05 02:45 42.56764 -121.62087 38827 ft 497 kts 165°
2026-05-05 02:45 42.49926 -121.60699 38815 ft 496 kts 165°
2026-05-05 02:46 42.43093 -121.59314 38808 ft 496 kts 165°
2026-05-05 02:46 42.36266 -121.57940 38818 ft 496 kts 165°
2026-05-05 02:47 42.29446 -121.56560 38815 ft 495 kts 165°
2026-05-05 02:47 42.22633 -121.55184 38813 ft 495 kts 165°
2026-05-05 02:48 42.15812 -121.53814 38872 ft 495 kts 165°
2026-05-05 02:48 42.09008 -121.52449 38875 ft 495 kts 165°
2026-05-05 02:49 42.02213 -121.51090 38862 ft 495 kts 165°
2026-05-05 02:49 41.95406 -121.49729 38860 ft 494 kts 165°
2026-05-05 02:50 41.89753 -121.48605 38856 ft 494 kts 165°
2026-05-05 02:50 41.82956 -121.47254 38844 ft 494 kts 165°
2026-05-05 02:51 41.76154 -121.45903 38844 ft 495 kts 165°
2026-05-05 02:51 41.69328 -121.44552 38842 ft 496 kts 165°
2026-05-05 02:52 41.62487 -121.43203 38885 ft 497 kts 166°
2026-05-05 02:52 41.55659 -121.41866 38864 ft 496 kts 166°
2026-05-05 02:53 41.48830 -121.40517 38873 ft 495 kts 166°
2026-05-05 02:53 41.42013 -121.39177 38913 ft 496 kts 166°
2026-05-05 02:54 41.35189 -121.37842 38913 ft 496 kts 166°
2026-05-05 02:54 41.28358 -121.36506 38919 ft 496 kts 166°
2026-05-05 02:55 41.21532 -121.35174 38926 ft 496 kts 166°
2026-05-05 02:55 41.14699 -121.33844 38923 ft 496 kts 167°
2026-05-05 02:56 41.07872 -121.32519 38918 ft 496 kts 166°
2026-05-05 02:56 41.01039 -121.31195 38925 ft 494 kts 167°
2026-05-05 02:57 40.94256 -121.29882 38917 ft 494 kts 167°
2026-05-05 02:57 40.87453 -121.28567 38926 ft 494 kts 167°
2026-05-05 02:58 40.80646 -121.27256 38919 ft 495 kts 167°
2026-05-05 02:58 40.73824 -121.25945 38916 ft 495 kts 167°
2026-05-05 02:59 40.67010 -121.24639 38940 ft 495 kts 168°
2026-05-05 02:59 40.60196 -121.23335 38924 ft 494 kts 168°
2026-05-05 03:00 40.53393 -121.22035 38941 ft 494 kts 168°
2026-05-05 03:00 40.46604 -121.20742 38944 ft 492 kts 168°
2026-05-05 03:01 40.39821 -121.19451 38942 ft 492 kts 168°
2026-05-05 03:01 40.33050 -121.18165 38938 ft 492 kts 168°
2026-05-05 03:02 40.26278 -121.16882 38947 ft 492 kts 168°
2026-05-05 03:02 40.19545 -121.15609 38951 ft 492 kts 168°
2026-05-05 03:03 40.12776 -121.14331 38972 ft 491 kts 168°
2026-05-05 03:03 40.06012 -121.13058 38980 ft 491 kts 168°
2026-05-05 03:04 39.99240 -121.11786 39007 ft 491 kts 168°
2026-05-05 03:04 39.92484 -121.10470 38998 ft 490 kts 164°
2026-05-05 03:05 39.86173 -121.07463 38992 ft 479 kts 146°
2026-05-05 03:05 39.80732 -121.02578 39016 ft 475 kts 138°
2026-05-05 03:06 39.75726 -120.96976 39025 ft 474 kts 134°
2026-05-05 03:06 39.70905 -120.91193 39009 ft 475 kts 133°
2026-05-05 03:07 39.66094 -120.85302 39020 ft 475 kts 133°
2026-05-05 03:07 39.61348 -120.79411 39021 ft 474 kts 133°
2026-05-05 03:08 39.56587 -120.73467 39019 ft 474 kts 133°
2026-05-05 03:08 39.51847 -120.67527 39021 ft 474 kts 133°
2026-05-05 03:09 39.47142 -120.61581 39017 ft 473 kts 133°
2026-05-05 03:09 39.42445 -120.55616 39017 ft 473 kts 133°
2026-05-05 03:10 39.37760 -120.49650 39018 ft 473 kts 133°
2026-05-05 03:10 39.33093 -120.43639 39043 ft 475 kts 133°
2026-05-05 03:11 39.28432 -120.37599 39011 ft 475 kts 133°
2026-05-05 03:11 39.23756 -120.31550 39026 ft 476 kts 133°
2026-05-05 03:12 39.19088 -120.25476 39024 ft 477 kts 133°
2026-05-05 03:12 39.14425 -120.19389 39019 ft 477 kts 133°
2026-05-05 03:13 39.09797 -120.13338 39014 ft 477 kts 133°
2026-05-05 03:13 39.05153 -120.07195 39003 ft 478 kts 133°
2026-05-05 03:14 39.00544 -120.01035 38979 ft 478 kts 132°
2026-05-05 03:14 38.95932 -119.94882 39022 ft 477 kts 133°
2026-05-05 03:14 38.93632 -119.92356 38996 ft 476 kts 149°
2026-05-05 03:15 38.90498 -119.90609 39012 ft 475 kts 167°
2026-05-05 03:15 38.87233 -119.90135 39017 ft 475 kts 179°
2026-05-05 03:15 38.83929 -119.90226 39012 ft 478 kts 181°
2026-05-05 03:16 38.77253 -119.90210 39003 ft 481 kts 178°
2026-05-05 03:16 38.70565 -119.90024 38999 ft 481 kts 179°
2026-05-05 03:17 38.63848 -119.89876 38978 ft 481 kts 179°
2026-05-05 03:17 38.57158 -119.89722 38984 ft 482 kts 179°
2026-05-05 03:18 38.50464 -119.89569 38988 ft 479 kts 179°
2026-05-05 03:18 38.43802 -119.89420 38992 ft 479 kts 179°
2026-05-05 03:19 38.33819 -119.89199 38999 ft 479 kts 179°
2026-05-05 03:19 38.27147 -119.89052 39001 ft 479 kts 179°
2026-05-05 03:20 38.20478 -119.88904 39017 ft 478 kts 179°
2026-05-05 03:20 38.13857 -119.88755 39020 ft 478 kts 179°
2026-05-05 03:21 38.07206 -119.88607 39027 ft 477 kts 179°
2026-05-05 03:21 38.00540 -119.88459 39028 ft 477 kts 179°
2026-05-05 03:22 37.93901 -119.88311 39028 ft 477 kts 180°
2026-05-05 03:22 37.87246 -119.88164 39023 ft 477 kts 179°
2026-05-05 03:23 37.80648 -119.88018 39023 ft 477 kts 179°
2026-05-05 03:23 37.74008 -119.87871 39024 ft 476 kts 180°
2026-05-05 03:24 37.67370 -119.87725 39026 ft 476 kts 180°
2026-05-05 03:24 37.60785 -119.87581 39026 ft 476 kts 180°
2026-05-05 03:25 37.54166 -119.87435 39024 ft 476 kts 180°
2026-05-05 03:25 37.47551 -119.87290 39020 ft 474 kts 180°
2026-05-05 03:26 37.41003 -119.87147 39018 ft 474 kts 180°
2026-05-05 03:26 37.34382 -119.87002 39015 ft 474 kts 180°
2026-05-05 03:27 37.27785 -119.86857 39014 ft 473 kts 180°
2026-05-05 03:27 37.21231 -119.86714 39012 ft 472 kts 180°
2026-05-05 03:28 37.14890 -119.86576 39010 ft 472 kts 180°
2026-05-05 03:28 37.08319 -119.86432 39010 ft 471 kts 180°
2026-05-05 03:29 37.01768 -119.86289 39008 ft 470 kts 180°
2026-05-05 03:29 36.95217 -119.86147 39009 ft 470 kts 180°
2026-05-05 03:30 36.88727 -119.86005 39001 ft 468 kts 181°
2026-05-05 03:30 36.82217 -119.85863 39025 ft 467 kts 181°
2026-05-05 03:31 36.75971 -119.85728 39027 ft 467 kts 181°
2026-05-05 03:31 36.69847 -119.85595 39028 ft 467 kts 181°
2026-05-05 03:32 36.63766 -119.85463 39025 ft 467 kts 181°
2026-05-05 03:32 36.57608 -119.85329 39021 ft 467 kts 181°
2026-05-05 03:33 36.51655 -119.85199 39008 ft 467 kts 181°
2026-05-05 03:33 36.45622 -119.85067 39003 ft 465 kts 181°
2026-05-05 03:34 36.39522 -119.84933 39007 ft 463 kts 181°
2026-05-05 03:34 36.34516 -119.84824 39010 ft 463 kts 181°
2026-05-05 03:35 36.28481 -119.84692 39007 ft 463 kts 181°
2026-05-05 03:35 36.22239 -119.84555 39005 ft 462 kts 181°
2026-05-05 03:36 36.15786 -119.84414 39004 ft 462 kts 181°
2026-05-05 03:36 36.09406 -119.84274 39004 ft 462 kts 181°
2026-05-05 03:37 36.02973 -119.84132 38998 ft 460 kts 181°
2026-05-05 03:37 35.96557 -119.83990 38999 ft 460 kts 181°
2026-05-05 03:38 35.90208 -119.83849 39007 ft 460 kts 181°
2026-05-05 03:38 35.83802 -119.83707 39003 ft 459 kts 181°
2026-05-05 03:39 35.77446 -119.83994 38998 ft 454 kts 193°
2026-05-05 03:39 35.71541 -119.86530 38998 ft 449 kts 210°
2026-05-05 03:40 35.66451 -119.90915 39014 ft 448 kts 216°
2026-05-05 03:40 35.63723 -119.92784 38906 ft 449 kts 199°
2026-05-05 03:40 35.60712 -119.93683 38959 ft 450 kts 192°
2026-05-05 03:41 35.54517 -119.95080 39008 ft 453 kts 189°
2026-05-05 03:41 35.51347 -119.95254 39007 ft 457 kts 178°
2026-05-05 03:41 35.48216 -119.94550 39011 ft 461 kts 166°
2026-05-05 03:42 35.42406 -119.91584 39020 ft 469 kts 157°
2026-05-05 03:42 35.36641 -119.87818 39020 ft 472 kts 155°
2026-05-05 03:43 35.30943 -119.83784 39017 ft 473 kts 152°
2026-05-05 03:43 35.25559 -119.79078 39013 ft 476 kts 147°
2026-05-05 03:44 35.20275 -119.74205 39007 ft 475 kts 149°
2026-05-05 03:44 35.15012 -119.69406 39005 ft 475 kts 148°
2026-05-05 03:45 35.09736 -119.64507 38580 ft 473 kts 148°
2026-05-05 03:45 35.07140 -119.62084 38053 ft 464 kts 148°
2026-05-05 03:45 35.04592 -119.59708 37493 ft 462 kts 148°
2026-05-05 03:46 35.02057 -119.57353 36863 ft 461 kts 149°
2026-05-05 03:46 34.99501 -119.54984 36265 ft 461 kts 149°
2026-05-05 03:46 34.96910 -119.52583 35650 ft 462 kts 149°
2026-05-05 03:46 34.94389 -119.50246 35069 ft 462 kts 149°
2026-05-05 03:47 34.91832 -119.47886 34389 ft 463 kts 149°
2026-05-05 03:47 34.89310 -119.45608 33562 ft 463 kts 150°
2026-05-05 03:47 34.86701 -119.43286 32647 ft 462 kts 150°
2026-05-05 03:47 34.84118 -119.40983 31764 ft 456 kts 150°
2026-05-05 03:48 34.81576 -119.38703 30908 ft 448 kts 150°
2026-05-05 03:48 34.79098 -119.36479 30082 ft 439 kts 150°
2026-05-05 03:48 34.76651 -119.34291 28969 ft 432 kts 150°
2026-05-05 03:48 34.74271 -119.32186 27887 ft 426 kts 150°
2026-05-05 03:49 34.71849 -119.30070 26853 ft 419 kts 150°
2026-05-05 03:49 34.69521 -119.28045 25832 ft 414 kts 150°
2026-05-05 03:49 34.67200 -119.26020 24871 ft 408 kts 149°
2026-05-05 03:49 34.64921 -119.24029 24018 ft 400 kts 149°
2026-05-05 03:50 34.62667 -119.22076 23171 ft 392 kts 149°
2026-05-05 03:50 34.60454 -119.20172 22367 ft 386 kts 149°
2026-05-05 03:50 34.58313 -119.18339 21588 ft 385 kts 149°
2026-05-05 03:50 34.56148 -119.16462 20819 ft 382 kts 148°
2026-05-05 03:51 34.54014 -119.14575 20133 ft 377 kts 148°
2026-05-05 03:51 34.51899 -119.12693 19568 ft 375 kts 148°
2026-05-05 03:51 34.49808 -119.10839 19291 ft 370 kts 148°
2026-05-05 03:51 34.47724 -119.08997 19144 ft 371 kts 148°
2026-05-05 03:52 34.45634 -119.07154 19056 ft 370 kts 148°
2026-05-05 03:52 34.43551 -119.05333 19036 ft 370 kts 148°
2026-05-05 03:52 34.41481 -119.03540 19023 ft 370 kts 148°
2026-05-05 03:52 34.39354 -119.01702 18698 ft 371 kts 148°
2026-05-05 03:53 34.37429 -119.00034 18253 ft 369 kts 148°
2026-05-05 03:53 34.35328 -118.98206 17702 ft 366 kts 148°
2026-05-05 03:53 34.33301 -118.96403 17197 ft 365 kts 147°
2026-05-05 03:53 34.31253 -118.94547 16659 ft 362 kts 147°
2026-05-05 03:54 34.29272 -118.92743 16163 ft 359 kts 147°
2026-05-05 03:54 34.27285 -118.90939 15666 ft 357 kts 147°
2026-05-05 03:54 34.25304 -118.89138 15162 ft 351 kts 146°
2026-05-05 03:54 34.23404 -118.87392 14652 ft 337 kts 146°
2026-05-05 03:55 34.21572 -118.85702 14167 ft 326 kts 146°
2026-05-05 03:55 34.19792 -118.84066 13674 ft 316 kts 146°
2026-05-05 03:55 34.18081 -118.82491 13143 ft 309 kts 145°
2026-05-05 03:55 34.16620 -118.81054 12697 ft 309 kts 142°
2026-05-05 03:56 34.15114 -118.79453 12214 ft 308 kts 141°
2026-05-05 03:56 34.13629 -118.77842 11740 ft 303 kts 141°
2026-05-05 03:56 34.12163 -118.76264 11267 ft 297 kts 141°
2026-05-05 03:56 34.10718 -118.74717 10781 ft 292 kts 141°
2026-05-05 03:57 34.09299 -118.73198 10331 ft 287 kts 141°
2026-05-05 03:57 34.07893 -118.71687 9872 ft 283 kts 141°
2026-05-05 03:57 34.06525 -118.70209 9378 ft 282 kts 140°
2026-05-05 03:57 34.05144 -118.68754 8934 ft 277 kts 142°
2026-05-05 03:58 34.03852 -118.67209 8729 ft 279 kts 128°
2026-05-05 03:58 34.03118 -118.65310 8537 ft 281 kts 106°
2026-05-05 03:58 34.02874 -118.63068 8410 ft 282 kts 95°
2026-05-05 03:58 34.02762 -118.60854 8294 ft 282 kts 96°
2026-05-05 03:59 34.02574 -118.58666 8238 ft 281 kts 99°
2026-05-05 03:59 34.02314 -118.56473 8214 ft 280 kts 101°
2026-05-05 03:59 34.02032 -118.54257 8117 ft 281 kts 101°
2026-05-05 03:59 34.01758 -118.52063 7963 ft 281 kts 100°
2026-05-05 04:00 34.01491 -118.49822 7793 ft 280 kts 99°
2026-05-05 04:00 34.01332 -118.47674 7614 ft 270 kts 91°
2026-05-05 04:00 34.01442 -118.45766 7433 ft 260 kts 83°
2026-05-05 04:00 34.01714 -118.43787 7251 ft 249 kts 81°
2026-05-05 04:01 34.01985 -118.41860 7060 ft 246 kts 82°
2026-05-05 04:01 34.02225 -118.39939 6809 ft 246 kts 82°
2026-05-05 04:01 34.02462 -118.38035 6497 ft 244 kts 82°
2026-05-05 04:01 34.02692 -118.36129 6160 ft 243 kts 83°
2026-05-05 04:02 34.02890 -118.34300 5830 ft 241 kts 84°
2026-05-05 04:02 34.03068 -118.32421 5487 ft 238 kts 88°
2026-05-05 04:02 34.02953 -118.30538 5127 ft 234 kts 96°
2026-05-05 04:02 34.02950 -118.28732 4812 ft 234 kts 86°
2026-05-05 04:03 34.03105 -118.26877 4452 ft 232 kts 83°
2026-05-05 04:03 34.03297 -118.25098 4145 ft 230 kts 83°
2026-05-05 04:03 34.03497 -118.23351 3945 ft 224 kts 82°
2026-05-05 04:03 34.03696 -118.21642 3861 ft 213 kts 82°
2026-05-05 04:04 34.03871 -118.20143 3658 ft 211 kts 82°
2026-05-05 04:04 34.04061 -118.18510 3448 ft 205 kts 82°
2026-05-05 04:04 34.04243 -118.16953 3378 ft 203 kts 82°
2026-05-05 04:04 34.04428 -118.15344 3442 ft 201 kts 83°
2026-05-05 04:05 34.04372 -118.13825 3330 ft 200 kts 105°
2026-05-05 04:05 34.03718 -118.12543 3089 ft 195 kts 140°
2026-05-05 04:05 34.02575 -118.11964 2922 ft 189 kts 177°
2026-05-05 04:05 34.01427 -118.12312 2878 ft 182 kts 213°
2026-05-05 04:06 34.00600 -118.13227 2990 ft 181 kts 229°
2026-05-05 04:06 33.99851 -118.14313 3001 ft 180 kts 232°
2026-05-05 04:06 33.99126 -118.15424 2992 ft 179 kts 234°
2026-05-05 04:06 33.98415 -118.16520 2988 ft 180 kts 233°
2026-05-05 04:07 33.97697 -118.17625 2980 ft 179 kts 233°
2026-05-05 04:07 33.97037 -118.18758 2968 ft 179 kts 243°
2026-05-05 04:07 33.96733 -118.20102 2923 ft 180 kts 264°
2026-05-05 04:07 33.96839 -118.21484 2923 ft 177 kts 278°
2026-05-05 04:08 33.97015 -118.22890 3042 ft 179 kts 276°
2026-05-05 04:08 33.97047 -118.24288 3021 ft 174 kts 267°
2026-05-05 04:08 33.96918 -118.25566 2851 ft 159 kts 260°
2026-05-05 04:08 33.96749 -118.26770 2589 ft 158 kts 261°
2026-05-05 04:09 33.96587 -118.27985 2586 ft 157 kts 261°
2026-05-05 04:09 33.96494 -118.29202 2462 ft 152 kts 266°
2026-05-05 04:09 33.96385 -118.30379 2209 ft 148 kts 261°
2026-05-05 04:09 33.96219 -118.31504 1910 ft 148 kts 260°
2026-05-05 04:10 33.96083 -118.32702 1554 ft 146 kts 262°
2026-05-05 04:10 33.95907 -118.33909 1293 ft 145 kts 260°
2026-05-05 04:10 33.95754 -118.35126 969 ft 148 kts 262°
2026-05-05 04:10 33.95637 -118.36200 778 ft 147 kts 263°
2026-05-05 04:11 33.95511 -118.37351 590 ft 147 kts 262°
2026-05-05 04:11 33.95397 -118.38487 427 ft 146 kts 261°
2026-05-05 04:11 33.95269 -118.39615 307 ft 146 kts 259°
2026-05-05 04:11 33.95159 -118.40748 199 ft 145 kts 261°
2026-05-05 04:12 33.95045 -118.41866 168 ft 140 kts 262°
2026-05-05 04:12 33.94942 -118.42947 422 ft 148 kts 261°
2026-05-05 04:12 33.94809 -118.44091 1107 ft 156 kts 262°
2026-05-05 04:12 33.94642 -118.45334 1734 ft 163 kts 261°
2026-05-05 04:13 33.94528 -118.46578 2490 ft 155 kts 265°
2026-05-05 04:13 33.94462 -118.47896 3066 ft 169 kts 265°
2026-05-05 04:13 33.94378 -118.49517 3028 ft 209 kts 265°
2026-05-05 04:13 33.94302 -118.51026 3137 ft 177 kts 266°
2026-05-05 04:14 33.94259 -118.52422 2730 ft 179 kts 267°
2026-05-05 04:14 33.94225 -118.53859 2293 ft 183 kts 268°
2026-05-05 04:14 33.94193 -118.55276 1896 ft 185 kts 268°
2026-05-05 04:14 33.94131 -118.56728 1459 ft 183 kts 266°
2026-05-05 04:15 33.94087 -118.58120 1494 ft 189 kts 269°
2026-05-05 04:15 33.94116 -118.59809 2055 ft 237 kts 271°
2026-05-05 04:15 33.94144 -118.61695 2473 ft 248 kts 269°
2026-05-05 04:15 33.94052 -118.63722 2771 ft 258 kts 265°
2026-05-05 04:16 33.93950 -118.65729 3103 ft 262 kts 273°
2026-05-05 04:16 33.94390 -118.67778 3368 ft 271 kts 295°
2026-05-05 04:16 33.95446 -118.69451 3636 ft 278 kts 317°
2026-05-05 04:16 33.96991 -118.70578 3942 ft 284 kts 338°
2026-05-05 04:17 33.98846 -118.70974 4233 ft 290 kts 360°
2026-05-05 04:17 34.00698 -118.70548 4529 ft 286 kts 21°
2026-05-05 04:17 34.02239 -118.69388 4720 ft 275 kts 44°
2026-05-05 04:17 34.03256 -118.67655 4868 ft 258 kts 67°
2026-05-05 04:18 34.03755 -118.65839 4937 ft 237 kts 77°
2026-05-05 04:18 34.03970 -118.64671 4992 ft 234 kts 79°
2026-05-05 04:18 34.04342 -118.62206 5144 ft 233 kts 81°
2026-05-05 04:18 34.04597 -118.60383 5269 ft 234 kts 82°
2026-05-05 04:19 34.04843 -118.58579 5403 ft 235 kts 82°
2026-05-05 04:19 34.05003 -118.57397 5482 ft 235 kts 82°
2026-05-05 04:19 34.05251 -118.55558 5507 ft 237 kts 82°
2026-05-05 04:19 34.05501 -118.53696 5468 ft 237 kts 82°
2026-05-05 04:20 34.05750 -118.51856 5347 ft 237 kts 82°
2026-05-05 04:20 34.06001 -118.49997 5144 ft 235 kts 82°
2026-05-05 04:20 34.06254 -118.48144 5041 ft 233 kts 82°
2026-05-05 04:20 34.06501 -118.46350 5009 ft 233 kts 82°
2026-05-05 04:21 34.06749 -118.44562 5003 ft 233 kts 81°
2026-05-05 04:21 34.07002 -118.42730 5012 ft 233 kts 81°
2026-05-05 04:21 34.07247 -118.40943 5010 ft 233 kts 81°
2026-05-05 04:21 34.07494 -118.39132 5010 ft 233 kts 81°
2026-05-05 04:22 34.07739 -118.37328 5015 ft 233 kts 81°
2026-05-05 04:22 34.07986 -118.35500 5000 ft 233 kts 81°
2026-05-05 04:22 34.08230 -118.33675 5001 ft 233 kts 82°
2026-05-05 04:22 34.08471 -118.31888 5281 ft 230 kts 82°
2026-05-05 04:23 34.08714 -118.30085 5687 ft 235 kts 82°
2026-05-05 04:23 34.08966 -118.28234 5702 ft 238 kts 82°
2026-05-05 04:23 34.09213 -118.26432 5409 ft 238 kts 82°
2026-05-05 04:23 34.09466 -118.24568 4933 ft 234 kts 81°
2026-05-05 04:24 34.09702 -118.22785 4398 ft 230 kts 81°
2026-05-05 04:24 34.09935 -118.21014 3931 ft 228 kts 82°
2026-05-05 04:24 34.10162 -118.19279 3450 ft 226 kts 82°
2026-05-05 04:25 34.10613 -118.15811 2788 ft 224 kts 83°
2026-05-05 04:25 34.10544 -118.14051 2569 ft 223 kts 105°
2026-05-05 04:25 34.09833 -118.12575 2432 ft 222 kts 135°
2026-05-05 04:25 34.08653 -118.11644 2419 ft 219 kts 155°
2026-05-05 04:26 34.07341 -118.10958 2564 ft 217 kts 160°
2026-05-05 04:26 34.06018 -118.10334 2884 ft 219 kts 162°
2026-05-05 04:26 34.04666 -118.09706 3006 ft 221 kts 161°
2026-05-05 04:26 34.03306 -118.09133 2993 ft 220 kts 169°
2026-05-05 04:27 34.01912 -118.09244 2885 ft 215 kts 200°
2026-05-05 04:27 34.00748 -118.10153 2912 ft 211 kts 223°
2026-05-05 04:27 33.99824 -118.11295 2933 ft 195 kts 229°
2026-05-05 04:27 33.98941 -118.12296 2903 ft 184 kts 219°
2026-05-05 04:28 33.98061 -118.13254 2910 ft 181 kts 237°
2026-05-05 04:28 33.97748 -118.14597 2944 ft 179 kts 264°
2026-05-05 04:28 33.97678 -118.16003 2985 ft 179 kts 265°
2026-05-05 04:28 33.97549 -118.17402 2980 ft 178 kts 263°
2026-05-05 04:29 33.97395 -118.18821 2992 ft 177 kts 263°
2026-05-05 04:29 33.97251 -118.20179 3164 ft 175 kts 263°
2026-05-05 04:29 33.97114 -118.21563 3196 ft 178 kts 263°
2026-05-05 04:29 33.96975 -118.22952 3012 ft 173 kts 263°
2026-05-05 04:30 33.96847 -118.24222 2757 ft 156 kts 262°
2026-05-05 04:30 33.96727 -118.25403 2530 ft 146 kts 262°
2026-05-05 04:30 33.96612 -118.26523 2370 ft 144 kts 263°
2026-05-05 04:30 33.96498 -118.27639 2227 ft 146 kts 263°
2026-05-05 04:31 33.96379 -118.28765 2029 ft 146 kts 263°
2026-05-05 04:31 33.96260 -118.29929 1861 ft 147 kts 263°
2026-05-05 04:31 33.96141 -118.31072 1647 ft 147 kts 263°
2026-05-05 04:31 33.96030 -118.32197 1469 ft 147 kts 262°
2026-05-05 04:32 33.95919 -118.33353 1256 ft 147 kts 263°
2026-05-05 04:32 33.95798 -118.34504 1098 ft 145 kts 262°
2026-05-05 04:32 33.95681 -118.35621 849 ft 147 kts 263°
2026-05-05 04:32 33.95561 -118.36768 755 ft 146 kts 262°
2026-05-05 04:33 33.95448 -118.37872 506 ft 144 kts 262°
2026-05-05 04:33 33.95345 -118.38977 335 ft 143 kts 261°
2026-05-05 04:33 33.95229 -118.40071 178 ft 143 kts 261°
2026-05-05 04:33 33.95108 -118.41194 101 ft 144 kts 261°
2026-05-05 04:34 33.95001 -118.42204 101 ft 103 kts 264°
2026-05-05 04:34 33.94955 -118.42656 101 ft 27 kts 265°
2026-05-05 04:34 33.94927 -118.42835 99 ft 25 kts 262°
2026-05-05 04:34 33.94919 -118.42974 98 ft 14 kts 262°
2026-05-05 04:35 33.94909 -118.43036 99 ft 8 kts 252°
2026-05-05 04:35 33.94872 -118.43076 101 ft 8 kts 202°
2026-05-05 04:35 33.94824 -118.43084 100 ft 7 kts 179°
2026-05-05 04:35 33.94777 -118.43081 104 ft 7 kts 176°
2026-05-05 04:36 33.94731 -118.43070 104 ft 8 kts 161°
2026-05-05 04:36 33.94682 -118.43031 103 ft 12 kts 137°
2026-05-05 04:36 33.94656 -118.42997 101 ft 4 kts 140°
2026-05-05 04:36 33.94633 -118.42986 102 ft 1 kts 171°
2026-05-05 04:37 33.94629 -118.42990 102 ft 1 kts 206°
2026-05-05 04:37 33.94617 -118.43011 100 ft 6 kts 242°
2026-05-05 04:37 33.94601 -118.43063 100 ft 8 kts 242°
2026-05-05 04:37 33.94558 -118.43103 99 ft 9 kts 199°
2026-05-05 04:38 33.94508 -118.43110 99 ft 7 kts 179°
2026-05-05 04:38 33.94466 -118.43093 100 ft 8 kts 146°
2026-05-05 04:38 33.94451 -118.43059 99 ft 6 kts 101°
2026-05-05 04:38 33.94450 -118.43040 99 ft 4 kts 93°
2026-05-05 04:39 33.94450 -118.43031 99 ft 1 kts 89°
2026-05-05 04:39 33.94450 -118.43020 98 ft 1 kts 88°
2026-05-05 04:39 33.94450 -118.43008 98 ft 0 kts 87°
2026-05-05 04:39 33.94450 -118.43007 98 ft 0 kts 87°